[[{"header":{"parameterUnit":"m.s-1","parameterCategory":1,"la1":30.2991,"la2":30.254,"lo1":-89.0895,"lo2":-89.0444,"dy":0.0017,"dx":0.0017,"nx":28,"ny":28,"refTime":"2025-03-30T09:00:00:Z","depth":0,"parameterNumber":2,"parameterNumberName":"U-component_of_WINDS"},"data":[0,0,0,0,0,0,0,0,0,0,0,0,0,0,0,0,0,0,0,0,0,0,0,0,0,0,0,0,0,0,0,0,0,0,0,0,0,0,0,0,0,0,0,0,0,0,0,0,0,0,0,0,0,0,0,0,0,0,1.7256,1.7256,0,1.7255,1.7255,1.7255,1.7223,1.7223,1.7222,1.7221,1.7221,1.7222,1.7222,0,0,0,0,0,0,0,0,0,0,0,0,0,1.7233,1.7234,1.7256,1.7256,1.7256,1.7255,1.7255,1.7255,1.7224,1.7223,1.7222,1.7221,1.7221,1.7221,1.7222,0,0,0,0,0,0,0,0,0,0,0,0,0,1.7239,1.7234,1.7256,1.724,1.7239,1.7255,1.7255,1.7255,1.7224,1.7223,1.7221,1.722,1.722,1.7221,1.7222,1.7254,0,0,1.7226,1.7226,0,0,0,0,0,0,0,0,1.7238,1.7239,1.7243,1.7241,1.724,1.7238,1.7247,1.7255,1.7224,1.723,1.7221,1.722,1.7228,1.7228,1.7231,1.7254,1.7254,1.7226,1.7227,1.7227,1.7228,0,0,0,0,0,0,0,1.7238,1.7239,1.7256,1.7243,1.7241,1.7234,1.7233,1.7248,1.7235,1.7229,1.7227,1.7227,1.7227,1.723,1.723,1.7254,1.7226,1.7227,1.7228,1.7228,1.7305,1.7307,0,0,0,0,0,0,1.724,1.7239,1.7256,1.7256,1.7236,1.7235,1.7235,1.724,1.7235,1.7233,1.7228,1.7225,1.7228,1.7229,1.723,1.7268,1.7227,1.7228,1.7229,1.7304,1.7306,1.7307,0,0,0,0,0,0,1.7239,1.7241,1.7256,1.7247,1.7248,1.7237,1.7243,1.724,1.7243,1.7234,1.7232,1.7233,1.7227,1.7229,1.7249,1.7268,1.7229,1.723,1.7302,1.7305,1.7306,1.7343,0,0,0,0,0,0,1.7239,1.7241,1.7253,1.7247,1.7249,1.7274,1.7244,1.7241,1.7245,1.7242,1.7239,1.7237,1.7226,1.7247,1.725,1.7268,1.7231,1.7301,1.7303,1.7306,1.7341,1.7347,1.7352,0,0,0,0,0,1.7238,1.7263,1.7253,1.7255,1.7262,1.7275,1.7276,1.7263,1.7247,1.7259,1.7253,1.7237,1.7265,1.725,1.7252,1.7272,1.7299,1.7303,1.7306,1.7338,1.7345,1.7352,0,0,0,0,0,0,1.727,1.7262,1.7251,1.7275,1.7276,1.7269,1.7284,1.7271,1.7276,1.7273,1.7257,1.7256,1.728,1.7277,1.726,1.7303,1.728,1.7283,1.7303,1.731,1.7316,1.7316,1.7232,0,0,0,0,0,1.728,1.729,1.7283,1.7304,1.7305,1.7295,1.7299,1.729,1.729,1.729,1.7286,1.7288,1.7297,1.7303,1.7311,1.734,1.734,1.7355,1.736,1.7365,1.7369,1.7386,1.7393,1.7317,1.7317,1.7317,0,0,1.7301,1.7297,1.7305,1.7311,1.731,1.7322,1.7295,1.7308,1.7317,1.7292,1.7311,1.7309,1.7309,1.7335,1.7345,1.7334,1.739,1.7369,1.7373,1.7374,1.739,1.7397,1.7403,1.7319,1.7319,1.7319,0,0,1.7344,1.7342,1.7361,1.7361,1.7361,1.7354,1.7359,1.7355,1.7352,1.7371,1.7353,1.7364,1.738,1.7382,1.7385,1.7432,1.7418,1.7435,1.7464,1.7481,1.7487,1.7492,1.751,1.7516,1.7438,1.7438,1.7438,0,1.737,1.7386,1.7372,1.7387,1.7391,1.737,1.7389,1.739,1.7393,1.7397,1.7383,1.7404,1.7403,1.7429,1.7441,1.7443,1.7449,1.7435,1.7487,1.7492,1.7497,1.7514,1.752,1.744,1.744,1.744,1.744,0,1.7419,1.7431,1.7446,1.745,1.7455,1.7472,1.7462,1.7469,1.746,1.7454,1.7475,1.7473,1.7481,1.7487,1.7477,1.7512,1.7505,1.7489,1.7466,1.7506,1.7522,1.7528,1.7444,1.7443,1.7442,1.7442,0,0,1.7481,1.7478,1.7484,1.7486,1.7486,1.7495,1.7512,1.752,1.7528,1.7531,1.7545,1.756,1.7547,1.755,1.7541,1.7555,1.7595,1.7538,1.7538,1.755,1.7635,1.7647,1.7655,1.7585,1.7586,1.7587,1.7635,0,1.7524,1.7553,1.7541,1.7571,1.7583,1.7564,1.7579,1.7581,1.7577,1.7587,1.7583,1.7594,1.7575,1.7577,1.7591,1.7587,1.7612,1.7583,1.76,1.7601,1.7601,1.7663,1.7675,1.772,1.7641,1.7642,1.7643,0,1.7578,1.7584,1.7615,1.7614,1.7619,1.7632,1.764,1.7649,1.7652,1.7648,1.7653,1.7641,1.7659,1.7636,1.7661,1.7642,1.7648,1.7648,1.7649,1.7651,1.7625,1.7667,1.7734,1.7742,1.7652,1.7652,1.7651,0,1.7622,1.7638,1.7659,1.7661,1.766,1.7671,1.7671,1.7672,1.7678,1.7685,1.7689,1.7698,1.7703,1.7711,1.7702,1.7686,1.773,1.7705,1.7728,1.7728,1.7738,1.7738,1.7809,1.7741,1.7741,1.7741,1.7741,0,1.7671,1.7691,1.7679,1.7692,1.7715,1.7702,1.7725,1.7723,1.7725,1.7738,1.7722,1.7735,1.7722,1.7734,1.7728,1.7751,1.7753,1.7751,1.7749,1.7753,1.7753,1.7757,1.7754,1.7743,1.7742,1.7742,1.7742,0,1.7724,1.7716,1.7738,1.7736,1.7736,1.7753,1.7752,1.7765,1.776,1.7777,1.7781,1.7774,1.7788,1.778,1.7793,1.7789,1.782,1.7813,1.7819,1.7817,1.7841,1.7839,1.7917,1.7928,1.7853,1.7854,1.7854,0,1.7756,1.7771,1.7771,1.7779,1.7781,1.7793,1.78,1.7789,1.7796,1.7802,1.7814,1.7827,1.7836,1.7859,1.7856,1.7867,1.7861,1.7888,1.7862,1.7866,1.7863,1.7862,1.7864,1.7893,1.7894,1.7894,1.7895,0,1.7814,1.781,1.782,1.783,1.7838,1.7845,1.7851,1.7858,1.7847,1.7857,1.7871,1.7879,1.7893,1.7907,1.7917,1.7918,1.7905,1.7903,1.7909,1.7913,1.7917,1.7916,1.7833,1.7901,1.7901,1.79,1.79,1.79,1.7858,1.7872,1.7874,1.7887,1.789,1.7896,1.7908,1.7906,1.7918,1.7929,1.7922,1.7939,1.7943,1.7955,1.7958,1.7972,1.7962,1.797,1.7972,1.7975,1.7979,1.7914,1.7974,1.7974,1.7973,1.7973,1.7973,0,1.7916,1.7918,1.7929,1.7938,1.7948,1.7936,1.7942,1.7952,1.7967,1.7971,1.7982,1.7999,1.8012,1.8011,1.8023,1.8035,1.8029,1.8038,1.8038,1.8038,1.7987,1.7981,1.8042,1.8042,1.8042,1.8042,1.8042,1.8042,1.7948,1.797,1.7967,1.7992,1.7993,1.801,1.8015,1.8021,1.8025,1.8045,1.8056,1.8055,1.8058,1.8071,1.8083,1.8082,1.8088,1.8099,1.8097,1.8049,1.8042,1.8035,1.803,1.81,1.8101,1.8147,1.8148,1.8148]},{"header":{"parameterUnit":"m.s-1","parameterCategory":1,"la1":30.2991,"la2":30.254,"lo1":-89.0895,"lo2":-89.0444,"dy":0.0017,"dx":0.0017,"nx":28,"ny":28,"refTime":"2025-03-30T09:00:00:Z","depth":0,"parameterNumber":3,"parameterNumberName":"V-component_of_WINDS"},"data":[0,0,0,0,0,0,0,0,0,0,0,0,0,0,0,0,0,0,0,0,0,0,0,0,0,0,0,0,0,0,0,0,0,0,0,0,0,0,0,0,0,0,0,0,0,0,0,0,0,0,0,0,0,0,0,0,0,0,4.7356,4.7357,0,4.7483,4.7484,4.7486,4.7513,4.7512,4.7511,4.751,4.7644,4.7648,4.7652,0,0,0,0,0,0,0,0,0,0,0,0,0,4.7142,4.7146,4.7356,4.7358,4.7359,4.7483,4.7484,4.7486,4.7513,4.7512,4.7511,4.751,4.7642,4.7647,4.7653,0,0,0,0,0,0,0,0,0,0,0,0,0,4.7249,4.7147,4.7356,4.7387,4.7392,4.7482,4.7485,4.7487,4.7513,4.7512,4.7511,4.7509,4.764,4.7647,4.7653,4.7723,0,0,4.7674,4.7677,0,0,0,0,0,0,0,0,4.7243,4.7257,4.7381,4.7385,4.739,4.7481,4.7458,4.7566,4.7514,4.7467,4.751,4.7509,4.7591,4.7601,4.7628,4.7729,4.7735,4.7674,4.7678,4.7681,4.7683,0,0,0,0,0,0,0,4.7235,4.7251,4.7406,4.7383,4.7389,4.7397,4.7411,4.7479,4.7535,4.7471,4.7473,4.7488,4.7593,4.7622,4.7632,4.7737,4.7674,4.768,4.7684,4.7687,4.7905,4.7907,0,0,0,0,0,0,4.7222,4.7245,4.7402,4.741,4.7311,4.7402,4.7417,4.7453,4.7535,4.7546,4.7489,4.7489,4.7611,4.7624,4.7636,4.7726,4.7681,4.7687,4.7691,4.7903,4.7905,4.7907,0,0,0,0,0,0,4.7217,4.7236,4.7397,4.7328,4.735,4.7407,4.7447,4.7456,4.7485,4.7548,4.7559,4.7508,4.7611,4.7627,4.7702,4.7731,4.769,4.7696,4.7901,4.7904,4.7906,4.7904,0,0,0,0,0,0,4.7211,4.7234,4.7259,4.7329,4.7353,4.7459,4.7449,4.746,4.7496,4.7497,4.7569,4.7579,4.7611,4.7692,4.7708,4.7739,4.7702,4.7899,4.7902,4.7906,4.7901,4.7906,4.791,0,0,0,0,0,4.7203,4.7253,4.726,4.7279,4.7386,4.746,4.7474,4.7509,4.7498,4.7526,4.7567,4.7577,4.7725,4.7699,4.7718,4.7751,4.7897,4.7901,4.7905,4.79,4.7905,4.791,0,0,0,0,0,0,4.7186,4.7263,4.7271,4.7345,4.7396,4.7464,4.75,4.7513,4.7568,4.7567,4.7608,4.7624,4.7697,4.7732,4.7702,4.7825,4.7811,4.7819,4.78,4.7806,4.781,4.7801,4.7707,0,0,0,0,0,4.719,4.7243,4.7308,4.7366,4.7392,4.7441,4.7475,4.7497,4.7552,4.7574,4.762,4.7674,4.7733,4.7771,4.7828,4.7906,4.7924,4.7939,4.7943,4.7946,4.7953,4.8001,4.801,4.7921,4.7921,4.7921,0,0,4.72,4.7249,4.728,4.7364,4.7406,4.7462,4.7459,4.7517,4.756,4.7583,4.7657,4.7693,4.7756,4.7834,4.787,4.7865,4.7982,4.7951,4.7953,4.7959,4.8006,4.8015,4.8022,4.7924,4.7923,4.7923,0,0,4.7248,4.7289,4.7344,4.7386,4.745,4.7483,4.7497,4.7564,4.7589,4.7664,4.7683,4.7735,4.7835,4.7881,4.7917,4.7985,4.7998,4.8002,4.8025,4.8071,4.8078,4.8085,4.8112,4.8121,4.8009,4.8009,4.8009,0,4.7253,4.7336,4.7371,4.7429,4.7467,4.7491,4.7549,4.7588,4.7668,4.7695,4.7687,4.7815,4.7859,4.795,4.7967,4.7994,4.8013,4.7995,4.8074,4.8081,4.8088,4.8114,4.8124,4.8009,4.8009,4.8009,4.8009,0,4.7341,4.7399,4.7436,4.7512,4.7555,4.7612,4.7658,4.7697,4.7716,4.7751,4.7829,4.7883,4.7953,4.7976,4.7995,4.807,4.8066,4.8065,4.8052,4.8096,4.8122,4.8132,4.801,4.801,4.801,4.801,0,0,4.738,4.7477,4.749,4.7527,4.76,4.7647,4.7707,4.7775,4.781,4.7864,4.7918,4.8003,4.8005,4.8046,4.8071,4.8111,4.8166,4.8106,4.8109,4.8118,4.8257,4.8258,4.8269,4.8174,4.8176,4.8178,4.8252,0,4.7439,4.7546,4.758,4.7671,4.7727,4.7751,4.7804,4.7856,4.7891,4.7945,4.7984,4.8045,4.804,4.8066,4.8107,4.815,4.8195,4.8145,4.8228,4.823,4.8213,4.8282,4.8283,4.835,4.8262,4.8264,4.8265,0,4.7521,4.7578,4.7674,4.7743,4.7768,4.7815,4.7883,4.7933,4.7994,4.8017,4.8064,4.8086,4.8153,4.8135,4.823,4.8196,4.8232,4.8259,4.8262,4.8273,4.8252,4.8297,4.8372,4.8383,4.8281,4.828,4.8279,0,4.7544,4.7644,4.7716,4.7746,4.7828,4.7861,4.7897,4.7956,4.7997,4.8056,4.8083,4.815,4.8187,4.8239,4.828,4.8263,4.8373,4.8357,4.8397,4.8396,4.842,4.8418,4.8504,4.8439,4.8439,4.8438,4.8438,0,4.7607,4.7666,4.7728,4.7771,4.7839,4.7879,4.7945,4.7983,4.8036,4.809,4.8115,4.8165,4.8215,4.8273,4.8305,4.8381,4.8397,4.842,4.8428,4.8419,4.8416,4.8444,4.8442,4.8441,4.844,4.844,4.8439,0,4.7645,4.7688,4.7768,4.7839,4.7859,4.7906,4.7969,4.8014,4.805,4.8118,4.8137,4.8194,4.8264,4.831,4.8398,4.8421,4.8505,4.851,4.8484,4.8488,4.8526,4.8523,4.8635,4.8654,4.8573,4.8574,4.8574,0,4.7683,4.7729,4.7806,4.7844,4.788,4.794,4.7981,4.8023,4.8066,4.8141,4.8178,4.8249,4.8308,4.8419,4.8471,4.854,4.8549,4.8584,4.856,4.8551,4.8554,4.8552,4.8558,4.8588,4.8589,4.8589,4.859,0,4.7748,4.7768,4.7826,4.7893,4.7942,4.7997,4.8052,4.8081,4.8134,4.8181,4.8252,4.8298,4.839,4.8462,4.8536,4.8576,4.8593,4.8597,4.861,4.8603,4.8587,4.8599,4.8497,4.8595,4.8594,4.8594,4.8593,4.8593,4.7789,4.7832,4.7894,4.796,4.8006,4.8057,4.8104,4.8147,4.8207,4.8284,4.8306,4.8381,4.8445,4.8547,4.8588,4.865,4.8646,4.8664,4.867,4.8674,4.8676,4.8575,4.8663,4.8663,4.8663,4.8663,4.8663,0,4.7858,4.7899,4.7959,4.8036,4.8088,4.8098,4.8161,4.8204,4.827,4.8327,4.8386,4.847,4.854,4.8598,4.8671,4.871,4.872,4.8728,4.8727,4.8737,4.8673,4.8656,4.8719,4.8719,4.8719,4.8719,4.8719,4.8719,4.79,4.7975,4.8003,4.8102,4.8143,4.8217,4.8252,4.8301,4.8348,4.844,4.8499,4.8536,4.8595,4.8673,4.8739,4.8755,4.8782,4.8789,4.8807,4.8747,4.8741,4.8735,4.8719,4.8794,4.8794,4.8865,4.8866,4.8867]}]]